Torna al catalogo

COSMOS 1275 DEB

AttivoPO
NORAD 12731·DEBRIS·🇷🇺 Russia

Lanciato Jun 4, 1981 da Plesetsk Cosmodrome

Loading…

Prossimi Passaggi (prossime 24 ore)

TLE

AggiornatoSource: Space-Track

Epoca: Sep 14, 2026, 11:26 UTC

1 12731U 81053BY  26257.47656399  .00000313  00000-0  28256-3 0  9995
2 12731  82.9396 160.9861 0081779 305.9144 177.4269 13.79525534263395

Traccia COSMOS 1275 DEB in tempo reale con AllMySat

Download on the App Store